Theta_e
325 326 326 325 324 324 324 324 324 325 326 328 330 331 332 335 336 338 338 343 349 348 338 336 334 332 330 329 327 325 323 322 326 324 321 321 321 322 322 320 321 320 319 317
327 326 324 323 323 324 325 326 327 326 325 327 330 330 332 336 338 337 333 338 343 341 336 332 330 329 329 327 325 326 325 323 320 320 322 323 323 322 321 319 319 319 318 316
326 326 324 325 325 326 327 327 327 327 326 327 328 327 332 333 337 338 337 336 338 340 335 331 330 329 328 327 326 325 322 321 322 321 322 323 323 321 319 320 319 318 316 315
326 326 325 325 327 327 328 326 326 327 327 326 327 326 331 332 336 339 340 339 338 337 333 331 330 329 328 327 327 324 324 323 321 323 322 324 323 322 321 320 318 316 316 316
327 326 326 327 327 327 328 326 327 327 326 326 327 328 332 330 331 340 341 339 337 334 332 331 329 327 326 325 324 324 324 323 323 322 319 320 319 321 319 318 317 316 314 312
327 326 327 327 326 326 327 328 326 325 327 328 330 327 327 330 333 340 337 335 331 328 323 319 316 317 317 319 317 317 316 314 313 313 314 316 318 318 317 315 313 311 311 311
328 328 326 328 329 328 328 326 322 322 324 325 329 328 334 332 335 337 335 328 323 321 319 317 316 316 315 314 314 313 313 313 313 314 314 314 314 313 313 312 311 311 311 311
329 330 329 328 328 328 326 325 327 326 325 326 326 330 336 337 338 331 327 322 320 317 317 315 315 314 314 313 312 312 312 312 312 312 312 312 312 311 310 311 311 310 310 310
331 331 327 327 326 326 325 329 327 329 328 330 327 329 331 336 337 332 326 322 319 316 315 315 316 315 313 312 311 311 311 311 311 310 311 311 310 311 311 311 311 310 310 310
330 330 327 326 326 327 327 327 329 329 332 329 326 326 333 332 331 335 330 323 320 318 318 318 316 314 312 311 310 310 310 310 310 310 310 310 310 310 310 311 311 311 310 311
328 328 326 325 327 327 328 328 327 328 330 330 328 326 327 329 328 331 329 324 320 319 319 317 315 314 311 311 311 310 310 309 309 309 309 310 310 310 310 310 310 310 310 311
331 327 328 326 324 326 326 327 327 328 326 325 326 328 325 325 326 328 325 320 318 320 317 317 313 311 312 311 310 310 309 309 309 309 309 310 310 310 310 310 310 311 311 311
330 329 329 327 329 327 327 325 326 328 331 330 329 327 326 323 324 323 322 319 319 318 317 314 312 312 312 311 310 309 309 309 309 309 309 309 309 309 309 309 310 310 311 311
327 329 328 328 327 327 326 324 323 327 332 329 327 329 329 324 322 321 319 320 318 316 315 314 313 313 311 309 308 308 308 309 308 308 309 309 309 309 309 309 309 309 309 310
333 330 327 325 325 326 326 325 323 326 327 330 328 328 327 324 323 321 319 318 317 318 316 314 313 310 309 308 308 308 308 308 308 308 308 308 308 308 308 308 308 308 308 309
331 328 327 328 325 326 325 324 325 325 325 326 325 326 323 322 321 321 321 320 319 316 314 312 310 309 308 308 308 307 307 307 308 308 308 308 308 308 308 308 308 308 308 308
328 327 328 329 326 325 326 326 325 326 326 326 328 325 322 322 322 323 320 317 316 314 311 310 308 308 308 307 306 307 307 307 307 307 307 307 307 307 308 308 307 307 307 307
330 331 328 329 326 331 328 325 325 327 325 324 322 321 321 321 319 318 316 316 313 311 310 309 308 307 306 307 307 307 307 305 305 306 306 306 307 307 307 307 306 306 305 305
327 329 330 331 331 328 327 327 326 328 327 322 322 320 319 319 317 318 314 312 311 309 309 308 307 307 307 308 307 307 306 305 305 305 305 306 306 306 306 304 303 303 304 304
329 329 331 330 332 333 329 326 325 325 328 322 321 320 320 317 315 316 312 310 309 308 307 307 308 308 308 307 306 305 305 305 305 305 305 306 306 303 302 302 302 303 303 302
329 330 331 331 331 328 327 325 324 328 329 321 320 319 317 314 314 313 310 309 308 307 308 308 307 307 307 307 306 305 305 306 306 305 305 305 303 303 303 302 302 301 299 299
330 331 330 329 330 331 325 323 324 325 321 320 318 315 313 313 312 310 309 308 307 308 308 307 306 306 306 305 306 305 306 306 306 305 305 303 303 302 302 301 300 299 299 299
330 328 329 327 328 326 322 323 321 320 320 317 314 312 312 312 310 309 308 308 308 308 307 306 305 305 305 305 306 306 306 306 306 305 303 302 302 301 300 300 300 299 298 299
325 325 324 325 324 323 321 319 318 317 315 312 311 311 311 310 308 309 309 309 308 307 306 305 305 306 306 306 305 304 304 303 304 303 303 303 301 301 300 300 300 300 299 299
324 323 323 324 324 322 320 319 316 314 312 311 310 310 309 308 309 309 309 308 308 306 306 305 307 305 304 304 303 303 302 301 302 302 302 301 301 301 301 301 300 300 299 299
322 323 324 326 322 322 322 317 315 314 312 310 311 309 307 308 309 309 309 308 306 305 306 307 304 303 303 303 303 303 303 301 302 302 302 301 302 302 302 301 301 300 301 301
Wind_Speed
3 3 7 8 6 5 3 2 5 5 5 7 5 4 6 8 9 9 7 4 3 7 14 11 12 15 19 19 18 16 19 14 4 4 6 9 7 12 14 12 11 12 11 11
7 10 6 3 3 2 2 5 7 3 2 7 2 5 2 6 9 10 5 3 8 11 11 16 17 18 18 18 18 16 14 4 7 2 7 12 10 11 14 13 11 9 10 11
10 8 3 3 3 6 4 9 8 10 11 11 8 15 9 5 7 10 11 9 7 11 11 12 16 19 20 22 19 14 12 7 8 14 13 12 11 12 10 9 11 9 12 12
6 4 2 3 5 7 2 7 8 13 15 12 5 11 11 6 8 10 11 10 9 9 11 12 16 17 18 15 8 5 3 5 7 9 11 11 12 14 12 12 12 14 14 15
6 4 2 3 5 5 7 8 11 14 16 10 9 7 8 4 3 10 11 11 11 10 9 11 13 13 9 6 8 5 2 2 5 7 7 8 9 12 12 12 13 16 16 16
6 2 5 5 1 3 6 13 19 12 6 9 7 4 4 7 7 9 9 12 12 12 13 16 15 16 14 10 10 8 7 4 3 4 5 6 8 11 13 16 18 17 15 11
2 3 3 6 11 4 13 15 11 7 8 7 4 7 9 8 7 8 10 10 9 9 9 10 13 11 11 10 7 8 8 6 6 6 6 8 10 12 13 13 13 12 11 9
6 3 4 6 7 9 13 9 7 12 10 12 8 5 6 8 12 13 11 10 9 9 8 9 10 10 11 12 12 12 12 11 10 9 8 7 9 10 10 8 10 10 10 10
6 1 4 7 5 7 10 5 7 9 14 9 2 3 10 7 8 10 9 9 9 9 9 9 11 12 12 12 11 11 12 11 10 10 9 7 7 7 9 10 10 10 11 12
4 8 4 5 5 6 7 5 5 4 7 9 8 12 10 7 5 5 8 7 9 9 9 9 10 11 11 9 9 10 11 12 12 10 9 8 9 10 11 11 12 13 13 13
4 3 6 8 5 7 1 4 6 4 6 9 10 8 10 11 11 3 6 8 9 8 8 9 11 12 12 12 14 14 14 13 10 10 11 11 11 10 10 12 13 13 13 13
4 4 7 7 1 2 4 6 8 6 10 11 10 9 9 11 10 7 9 8 7 7 8 10 10 8 13 15 16 15 13 10 10 10 10 10 9 10 11 13 13 12 12 13
2 1 8 2 7 7 3 8 6 7 7 10 9 5 9 10 9 8 8 6 5 10 11 8 9 11 13 15 16 13 12 11 11 11 10 9 10 10 11 13 12 12 11 11
2 4 9 10 12 6 10 12 8 7 8 10 8 12 14 8 5 6 5 7 9 6 6 4 9 15 17 15 13 11 12 12 13 11 10 10 10 11 12 12 12 12 13 12
3 9 10 12 9 9 12 10 10 11 6 6 11 9 8 6 5 7 7 4 5 6 6 10 12 17 14 10 11 12 12 12 11 12 10 9 11 11 11 10 13 13 13 12
2 11 10 13 14 6 11 5 7 3 4 7 5 5 5 3 2 2 5 6 9 7 9 12 15 12 11 11 12 13 13 14 14 15 14 12 13 11 10 10 12 13 14 14
6 9 9 14 7 8 13 3 2 1 2 7 8 8 4 6 7 8 11 8 8 11 11 12 10 10 11 12 12 14 15 15 15 15 15 16 15 13 9 11 11 12 14 15
6 7 8 9 10 10 6 6 6 9 6 3 4 8 8 7 7 6 8 10 10 11 11 10 9 10 11 12 14 13 14 14 13 16 17 16 15 12 10 10 12 13 14 12
1 3 2 3 4 3 4 3 2 4 2 4 6 6 7 9 11 9 8 9 10 10 8 8 10 11 12 14 13 16 15 15 15 18 16 15 13 13 12 14 13 13 14 10
1 3 4 3 4 3 3 3 2 4 3 6 6 7 9 13 8 9 10 10 9 8 8 10 12 13 13 14 16 16 16 17 17 14 13 11 11 11 10 9 10 12 13 11
2 2 2 2 1 2 3 2 3 4 5 6 6 7 9 9 6 7 9 7 7 7 9 11 13 14 15 14 15 15 15 18 14 11 10 11 9 9 11 11 11 12 11 10
4 4 2 2 3 1 4 2 5 5 5 4 5 7 7 6 6 7 5 6 6 9 11 12 14 14 12 15 13 16 17 15 12 10 10 11 9 10 10 11 12 12 13 11
2 4 4 4 4 4 4 6 5 3 5 5 6 6 5 6 6 4 5 5 7 10 13 13 14 13 14 14 14 16 18 16 13 12 12 11 10 11 12 10 10 14 13 11
3 1 4 4 4 4 6 6 7 7 7 6 6 6 6 6 6 5 5 8 10 13 13 12 14 15 16 17 15 14 14 14 11 10 11 11 11 11 12 11 12 12 14 9
5 1 4 2 4 5 5 6 8 8 7 6 7 7 6 6 6 5 7 9 13 13 12 14 18 19 17 14 14 14 15 16 13 12 13 11 12 11 10 11 16 14 14 12
2 4 3 3 3 3 7 9 7 6 6 5 6 7 7 5 6 5 8 12 11 11 12 16 17 16 16 15 13 13 13 11 11 11 11 13 11 12 14 13 14 18 18 18
Wind_Direction
192 226 33 41 30 33 57 1 321 62 32 302 350 338 13 6 11 4 6 162 143 132 97 125 131 138 137 123 116 115 118 124 70 341 332 300 286 302 298 286 279 293 300 320
217 69 61 90 115 111 339 310 29 162 37 288 213 262 154 48 41 37 19 72 129 117 118 118 123 135 124 122 123 127 130 80 18 334 286 297 284 290 290 288 287 294 311 313
49 65 104 184 135 296 70 1 357 336 319 262 266 267 177 115 68 60 62 72 89 124 138 139 144 142 133 124 110 107 99 36 307 276 274 277 286 296 284 285 293 291 304 320
50 74 205 216 72 325 348 358 310 312 315 306 341 295 158 118 106 68 61 64 82 107 140 149 144 139 144 131 93 122 178 25 281 270 282 277 278 281 288 292 292 307 309 317
70 41 14 49 38 326 22 325 312 304 301 308 222 264 123 100 123 71 58 53 62 76 92 102 103 104 109 60 38 46 47 352 244 269 276 289 282 288 290 292 299 302 302 308
87 88 24 20 299 359 307 300 308 276 261 265 74 325 354 35 24 104 82 65 72 75 73 73 74 72 67 60 49 53 58 51 26 330 325 324 307 303 305 305 304 306 311 315
197 128 123 352 313 246 330 331 314 315 297 314 61 296 51 63 31 45 107 86 77 77 82 83 82 92 92 76 49 36 20 10 345 321 310 309 301 298 295 305 309 313 312 313
332 202 19 10 357 329 312 324 311 315 322 320 291 281 77 75 76 81 91 95 87 80 91 102 102 86 65 44 26 12 360 349 346 330 318 309 308 310 307 329 320 314 312 315
313 360 99 31 1 334 349 302 344 287 273 259 351 115 160 122 110 106 101 98 99 108 100 85 69 50 35 21 12 1 350 341 333 327 322 327 337 337 335 326 318 314 311 312
59 298 88 40 271 121 354 4 294 285 305 316 317 315 50 35 358 136 134 120 125 117 97 67 43 33 21 6 355 347 345 341 336 337 343 347 336 331 330 326 322 316 309 305
339 290 325 285 28 347 284 16 340 290 279 311 308 339 13 2 351 359 107 120 113 101 68 50 29 11 352 344 351 345 341 337 339 345 343 337 334 327 322 318 313 305 297 297
53 311 299 337 36 306 342 353 335 323 312 310 298 290 26 19 26 70 103 109 99 65 47 17 8 346 348 345 343 339 341 338 341 336 332 326 325 323 321 318 310 307 301 302
55 283 304 226 167 194 324 338 308 300 280 282 299 323 78 43 52 79 107 111 85 28 3 360 352 344 338 341 338 343 340 337 332 332 323 318 326 324 323 321 321 319 315 317
309 281 282 294 328 334 300 319 328 289 285 312 329 343 25 40 72 102 104 41 19 348 348 325 328 344 340 344 345 340 337 336 334 324 315 329 333 330 332 332 335 337 337 332
290 290 301 288 295 290 299 315 315 299 326 290 351 344 21 26 57 64 37 10 323 304 334 353 347 339 347 355 348 344 342 339 331 323 324 322 328 328 329 342 347 343 338 333
255 282 287 281 275 279 290 322 287 285 324 287 302 359 30 49 121 4 331 324 346 347 353 353 343 353 353 354 349 342 340 340 333 334 329 331 322 319 332 339 342 346 343 343
288 282 272 278 303 297 274 131 311 276 356 336 342 19 346 353 334 341 354 10 353 360 350 346 352 352 351 348 339 337 334 334 330 331 324 322 318 326 327 337 345 351 346 343
285 276 276 279 286 277 68 55 359 346 355 3 22 1 10 2 353 20 21 14 8 345 348 353 356 350 346 333 336 339 341 334 336 333 330 337 332 326 337 351 355 350 348 341
270 273 255 261 289 131 84 320 128 307 49 55 10 356 5 347 298 83 29 18 357 354 7 357 349 343 327 334 336 344 339 337 331 346 339 349 357 9 9 2 357 345 337 343
110 244 247 263 274 321 94 136 218 303 174 45 1 5 351 331 336 46 9 5 7 13 8 348 341 334 340 348 353 339 350 349 343 347 348 359 10 18 11 348 343 346 355 2
306 283 275 129 190 209 52 110 270 274 43 51 20 6 1 360 9 0 355 13 22 7 351 342 345 338 346 336 346 338 349 349 349 9 9 17 21 0 359 350 355 358 355 4
333 324 360 300 239 120 42 181 316 59 77 49 29 16 11 19 29 14 4 20 12 354 349 352 342 351 349 351 352 351 354 354 15 22 17 15 4 353 356 3 11 20 13 20
315 8 338 5 18 89 62 63 79 53 68 44 34 28 32 41 54 71 61 30 9 359 357 0 348 354 1 356 358 359 357 358 358 14 13 6 8 11 12 15 21 17 23 28
144 34 306 298 121 112 114 98 92 83 83 66 53 58 68 89 91 84 48 24 10 6 10 359 359 356 5 23 14 7 1 1 4 11 7 13 18 23 32 34 22 22 24 33
36 244 329 293 119 132 134 120 117 104 91 75 69 77 91 106 83 51 38 19 18 17 13 14 20 23 20 16 22 20 18 15 31 31 31 26 32 38 37 34 34 54 55 51
128 344 322 31 39 12 109 133 130 112 85 76 102 108 111 94 68 27 33 29 24 30 22 41 47 38 22 19 16 7 5 17 23 24 31 37 39 43 59 63 61 66 64 63